Location: Barrio Pajares
(40.5500°N, 4.1667°W)
Time: 13:38:25
(UTC+00:00)

IRS-P2 Rocket - Pass Details

Date: 18 April 2024
Orbit: 794 x 875 km, 98.9° (Epoch: 27 May)

Event Time Altitude Azimuth Distance (km) Brightness Sun altitude
Exits shadow 21:24:09 67° 157° (SSE) 865 4.4 -24.8°
Maximum altitude 21:24:52 87° 76° (ENE) 809 4.5 -24.9°
Drops below altitude 10° 21:30:12 10° 347° (NNW) 2,407 7.8 -25.6°
Sets 21:32:34 0° 347° (NNW) 3,354 8.7 -25.9°
